This is the latest recevied weather packets stored in our database for station/object DB0MAK-13. If no packets are shown the sender has not sent any weather packets the latest 1 day(s).
| Time | Temp. | Humidity | Pressure | Rain* | Wind** | Luminosity | Snow |
|---|---|---|---|---|---|---|---|
| 1777960444 | 13.33° C | 83% | 1008.2 hPa | 0 mm | 0 m/s | - | - |
| 1777960029 | 13.33° C | 82% | 1008.1 hPa | 0 mm | 0.45 m/s, 317° | - | - |
| 1777959844 | 13.33° C | 82% | 1008.1 hPa | 0 mm | 1.79 m/s, 325° | - | - |
| 1777959609 | 13.89° C | 83% | 1008.1 hPa | 0 mm | 0 m/s | - | - |
| 1777959244 | 13.33° C | 83% | 1008 hPa | 0 mm | 0.45 m/s, 287° | - | - |
| 1777959189 | 12.78° C | 84% | 1008.1 hPa | 0 mm | 1.34 m/s, 283° | - | - |
| 1777958644 | 12.78° C | 84% | 1008 hPa | 0 mm | 0.45 m/s, 320° | - | - |
| 1777958347 | 12.78° C | 84% | 1007.9 hPa | 0 mm | 0 m/s | - | - |
| 1777958044 | 12.78° C | 85% | 1007.9 hPa | 0 mm | 0.45 m/s, 324° | - | - |
| 1777957929 | 12.78° C | 85% | 1007.9 hPa | 0 mm | 0.45 m/s, 328° | - | - |
| 1777957444 | 12.22° C | 85% | 1008 hPa | 0 mm | 0 m/s | - | - |
| 1777956844 | 12.22° C | 86% | 1008 hPa | 0 mm | 0 m/s | - | - |
| 1777956244 | 12.22° C | 86% | 1008 hPa | 0 mm | 0.45 m/s, 320° | - | - |
| 1777955827 | 12.22° C | 85% | 1008 hPa | 0 mm | 1.79 m/s, 325° | - | - |
| 1777955644 | 12.22° C | 85% | 1008.1 hPa | 0 mm | 0.45 m/s, 324° | - | - |
| 1777955409 | 12.22° C | 85% | 1008 hPa | 0 mm | 1.34 m/s, 318° | - | - |
| 1777955044 | 12.22° C | 85% | 1008.1 hPa | 0 mm | 2.68 m/s, 323° | - | - |
| 1777954989 | 12.22° C | 85% | 1008.1 hPa | 0 mm | 2.68 m/s, 323° | - | - |
| 1777954567 | 12.22° C | 85% | 1008 hPa | 0 mm | 2.68 m/s, 322° | - | - |
| 1777954444 | 12.22° C | 85% | 1008.1 hPa | 0 mm | 2.68 m/s, 325° | - | - |
| 1777953844 | 12.22° C | 84% | 1008.2 hPa | 0 mm | 5.36 m/s, 320° | - | - |
| 1777953727 | 12.22° C | 84% | 1008.2 hPa | 0 mm | 4.92 m/s, 323° | - | - |
| 1777953307 | 12.22° C | 84% | 1008.2 hPa | 0 mm | 4.02 m/s, 323° | - | - |
| 1777953244 | 12.22° C | 84% | 1008.2 hPa | 0 mm | 5.36 m/s, 324° | - | - |
| 1777952889 | 12.22° C | 84% | 1008.2 hPa | 0 mm | 3.58 m/s, 324° | - | - |
* Rain latest hour (hover to see other rain measurements)
** Current wind speed in m/s (hover to see current wind gust speed)